| time (UTC) | temp F | wind direction | speed MPH | gust MPH | rain 1hr in | rain 24hr in | rain mn in | humidity % | barometer mb |
| 20260507044003 | 47 | 282 | 0.0 | 2.0 | 0.00 | 0.16 | 0.00 | 92 | 1013.9 |
| 20260507043503 | 47 | 282 | 1.0 | 2.0 | 0.00 | 0.18 | 0.00 | 92 | 1013.8 |
| 20260507043003 | 47 | 282 | 0.0 | 2.0 | 0.00 | 0.19 | 0.00 | 92 | 1013.9 |
| 20260507042503 | 47 | 282 | 0.0 | 2.0 | 0.00 | 0.20 | 0.00 | 92 | 1013.8 |
| 20260507042003 | 47 | 282 | 0.0 | 2.0 | 0.00 | 0.20 | 0.00 | 92 | 1014.0 |
| 20260507041503 | 47 | 282 | 0.0 | 2.0 | 0.00 | 0.21 | 0.00 | 92 | 1013.9 |
| 20260507041003 | 47 | 282 | 1.0 | 2.0 | 0.00 | 0.21 | 0.00 | 92 | 1013.8 |
| 20260507040503 | 47 | 282 | 1.0 | 2.0 | 0.00 | 0.21 | 0.00 | 92 | 1014.0 |
| 20260507040003 | 47 | 282 | 1.0 | 2.0 | 0.00 | 0.21 | 0.00 | 92 | 1014.1 |
| 20260507035503 | 47 | 283 | 1.0 | 2.0 | 0.00 | 0.21 | 0.00 | 92 | 1014.1 |
| 20260507035003 | 47 | 283 | 1.0 | 3.0 | 0.00 | 0.21 | 0.00 | 92 | 1014.1 |
| 20260507034503 | 47 | 283 | 1.0 | 3.0 | 0.00 | 0.21 | 0.00 | 92 | 1014.1 |
| 20260507034017 | 47 | 283 | 0.0 | 2.0 | 0.00 | 0.21 | 0.00 | 92 | 1014.1 |
| 20260507033503 | 47 | 283 | 0.0 | 1.0 | 0.00 | 0.21 | 0.00 | 92 | 1014.1 |
| 20260507033003 | 47 | 283 | 0.0 | 1.0 | 0.00 | 0.21 | 0.00 | 92 | 1014.1 |
| 20260507032503 | 47 | 283 | 0.0 | 2.0 | 0.00 | 0.21 | 0.00 | 91 | 1014.1 |
| 20260507032017 | 48 | 283 | 0.0 | 2.0 | 0.00 | 0.21 | 0.00 | 92 | 1014.2 |
| 20260507031517 | 48 | 278 | 1.0 | 3.0 | 0.00 | 0.21 | 0.00 | 92 | 1014.0 |
| 20260507031003 | 48 | 287 | 2.0 | 4.0 | 0.00 | 0.21 | 0.00 | 92 | 1014.1 |
| 20260507030503 | 48 | 289 | 2.0 | 5.0 | 0.00 | 0.21 | 0.00 | 92 | 1014.1 |
| 20260507030017 | 48 | 293 | 2.0 | 7.0 | 0.00 | 0.21 | 0.00 | 92 | 1014.2 |
| 20260507025503 | 48 | 296 | 2.0 | 7.0 | 0.00 | 0.21 | 0.00 | 92 | 1014.2 |
| 20260507025003 | 48 | 285 | 2.0 | 4.0 | 0.00 | 0.21 | 0.00 | 92 | 1014.1 |
| 20260507024503 | 48 | 279 | 2.0 | 4.0 | 0.00 | 0.21 | 0.00 | 92 | 1014.0 |
| 20260507024003 | 48 | 274 | 1.0 | 4.0 | 0.00 | 0.21 | 0.00 | 92 | 1014.1 |
| 20260507023518 | 48 | 264 | 1.0 | 3.0 | 0.00 | 0.21 | 0.00 | 92 | 1014.2 |
| 20260507023003 | 48 | 250 | 1.0 | 3.0 | 0.00 | 0.21 | 0.00 | 92 | 1014.2 |
| 20260507022503 | 48 | 227 | 1.0 | 3.0 | 0.00 | 0.21 | 0.00 | 92 | 1014.2 |
| 20260507022003 | 48 | 200 | 0.0 | 1.0 | 0.00 | 0.21 | 0.00 | 92 | 1014.3 |
| 20260507021517 | 48 | 200 | 0.0 | 1.0 | 0.00 | 0.21 | 0.00 | 92 | 1014.3 |
| 20260507021017 | 48 | 200 | 0.0 | 1.0 | 0.00 | 0.21 | 0.00 | 92 | 1014.2 |
| 20260507020503 | 48 | 200 | 0.0 | 1.0 | 0.00 | 0.21 | 0.00 | 92 | 1014.3 |
| 20260507020003 | 48 | 200 | 0.0 | 1.0 | 0.00 | 0.21 | 0.00 | 92 | 1014.2 |
| 20260507015503 | 48 | 200 | 0.0 | 1.0 | 0.00 | 0.21 | 0.00 | 92 | 1014.3 |
| 20260507015003 | 48 | 200 | 0.0 | 1.0 | 0.00 | 0.21 | 0.00 | 92 | 1014.3 |
| 20260507014503 | 48 | 200 | 0.0 | 2.0 | 0.00 | 0.21 | 0.00 | 92 | 1014.3 |
| 20260507014003 | 48 | 200 | 1.0 | 3.0 | 0.00 | 0.21 | 0.00 | 92 | 1014.3 |
| 20260507013517 | 48 | 241 | 1.0 | 4.0 | 0.00 | 0.21 | 0.00 | 91 | 1014.4 |
| 20260507013017 | 48 | 309 | 2.0 | 4.0 | 0.00 | 0.21 | 0.00 | 91 | 1014.5 |
| 20260507012517 | 48 | 290 | 2.0 | 4.0 | 0.00 | 0.21 | 0.00 | 92 | 1014.5 |
| 20260507012017 | 49 | 255 | 2.0 | 4.0 | 0.00 | 0.21 | 0.00 | 92 | 1014.5 |
| 20260507011503 | 49 | 248 | 1.0 | 3.0 | 0.00 | 0.21 | 0.00 | 91 | 1014.5 |
| 20260507011003 | 49 | 248 | 0.0 | 3.0 | 0.00 | 0.21 | 0.00 | 91 | 1014.4 |
| 20260507010503 | 49 | 248 | 0.0 | 2.0 | 0.00 | 0.21 | 0.00 | 91 | 1014.5 |
| 20260507010003 | 49 | 248 | 0.0 | 2.0 | 0.00 | 0.21 | 0.00 | 91 | 1014.5 |
| 20260507005503 | 49 | 248 | 0.0 | 2.0 | 0.00 | 0.21 | 0.00 | 91 | 1014.5 |
| 20260507005003 | 49 | 248 | 0.0 | 2.0 | 0.00 | 0.21 | 0.00 | 91 | 1014.5 |
| 20260507004503 | 50 | 248 | 1.0 | 3.0 | 0.00 | 0.21 | 0.00 | 91 | 1014.6 |
| 20260507004003 | 50 | 241 | 1.0 | 3.0 | 0.00 | 0.21 | 0.00 | 91 | 1014.7 |
| 20260507003503 | 49 | 207 | 1.0 | 3.0 | 0.00 | 0.21 | 0.00 | 91 | 1014.7 |
| 20260507003003 | 50 | 271 | 2.0 | 4.0 | 0.00 | 0.21 | 0.00 | 91 | 1014.8 |
| 20260507002503 | 50 | 300 | 2.0 | 4.0 | 0.00 | 0.21 | 0.00 | 91 | 1014.8 |
| 20260507002003 | 50 | 294 | 1.0 | 3.0 | 0.00 | 0.21 | 0.00 | 91 | 1014.8 |
| 20260507001503 | 50 | 294 | 0.0 | 3.0 | 0.00 | 0.21 | 0.00 | 91 | 1014.8 |
| 20260507001003 | 50 | 295 | 0.0 | 1.0 | 0.00 | 0.21 | 0.00 | 91 | 1014.8 |
| 20260507000503 | 50 | 295 | 0.0 | 1.0 | 0.00 | 0.21 | 0.00 | 91 | 1014.9 |
| 20260507000003 | 50 | 295 | 0.0 | 2.0 | 0.00 | 0.21 | 0.00 | 91 | 1014.9 |
| 20260506235517 | 50 | 305 | 1.0 | 3.0 | 0.00 | 0.21 | 0.00 | 91 | 1015.0 |
| 20260506235003 | 50 | 311 | 1.0 | 3.0 | 0.00 | 0.21 | 0.00 | 92 | 1014.9 |
| 20260506234503 | 50 | 309 | 1.0 | 3.0 | 0.00 | 0.21 | 0.00 | 91 | 1014.9 |
| 20260506234003 | 50 | 297 | 2.0 | 3.0 | 0.00 | 0.21 | 0.00 | 91 | 1015.0 |
| 20260506233503 | 50 | 291 | 2.0 | 3.0 | 0.00 | 0.21 | 0.00 | 91 | 1015.1 |
| 20260506233003 | 50 | 292 | 1.0 | 3.0 | 0.00 | 0.21 | 0.00 | 91 | 1015.2 |
| 20260506232503 | 50 | 292 | 0.0 | 2.0 | 0.00 | 0.21 | 0.00 | 91 | 1015.2 |
| 20260506232003 | 51 | 291 | 0.0 | 3.0 | 0.00 | 0.21 | 0.00 | 91 | 1015.1 |
| 20260506231503 | 51 | 298 | 1.0 | 6.0 | 0.00 | 0.21 | 0.00 | 91 | 1015.2 |
| 20260506231003 | 51 | 304 | 2.0 | 6.0 | 0.00 | 0.21 | 0.00 | 91 | 1015.2 |
| 20260506230503 | 51 | 313 | 1.0 | 4.0 | 0.00 | 0.21 | 0.00 | 91 | 1015.3 |
| 20260506230017 | 51 | 334 | 0.0 | 2.0 | 0.00 | 0.21 | 0.00 | 91 | 1015.4 |
| 20260506225503 | 51 | 334 | 0.0 | 1.0 | 0.00 | 0.21 | 0.00 | 90 | 1015.2 |
| 20260506225003 | 51 | 334 | 0.0 | 2.0 | 0.00 | 0.21 | 0.00 | 90 | 1015.3 |
| 20260506224503 | 51 | 334 | 0.0 | 2.0 | 0.00 | 0.21 | 0.00 | 90 | 1015.3 |
| 20260506224003 | 51 | 334 | 0.0 | 2.0 | 0.00 | 0.21 | 0.00 | 90 | 1015.2 |
| 20260506223517 | 51 | 0 | 0.0 | 0.0 | 0.00 | 0.21 | 0.00 | 90 | 1015.2 |
| 20260506223003 | 51 | 0 | 0.0 | 0.0 | 0.00 | 0.21 | 0.00 | 90 | 1015.4 |
| 20260506222503 | 51 | 0 | 0.0 | 0.0 | 0.00 | 0.21 | 0.00 | 89 | 1015.4 |
| 20260506222003 | 51 | 0 | 0.0 | 0.0 | 0.00 | 0.21 | 0.00 | 89 | 1015.5 |
| 20260506221504 | 51 | 0 | 0.0 | 0.0 | 0.00 | 0.21 | 0.00 | 89 | 1015.4 |
| 20260506221017 | 51 | 0 | 0.0 | 0.0 | 0.00 | 0.21 | 0.00 | 89 | 1015.4 |
| 20260506220503 | 52 | 0 | 0.0 | 0.0 | 0.00 | 0.21 | 0.00 | 89 | 1015.3 |
| 20260506220003 | 52 | 0 | 0.0 | 0.0 | 0.00 | 0.21 | 0.00 | 89 | 1015.4 |
| 20260506215503 | 52 | 0 | 0.0 | 0.0 | 0.00 | 0.21 | 0.21 | 89 | 1015.4 |
| 20260506215003 | 52 | 0 | 0.0 | 0.0 | 0.00 | 0.21 | 0.21 | 89 | 1015.4 |
| 20260506214517 | 52 | 0 | 0.0 | 0.0 | 0.00 | 0.21 | 0.21 | 89 | 1015.4 |
| 20260506214017 | 52 | 0 | 0.0 | 0.0 | 0.00 | 0.21 | 0.21 | 89 | 1015.5 |
| 20260506213503 | 52 | 335 | 0.0 | 2.0 | 0.00 | 0.21 | 0.21 | 89 | 1015.6 |
| 20260506213003 | 52 | 335 | 0.0 | 2.0 | 0.00 | 0.21 | 0.21 | 89 | 1015.6 |
| 20260506212503 | 52 | 0 | 0.0 | 0.0 | 0.00 | 0.21 | 0.21 | 88 | 1015.5 |
| 20260506212003 | 52 | 0 | 0.0 | 0.0 | 0.00 | 0.21 | 0.21 | 88 | 1015.6 |
| 20260506211503 | 52 | 0 | 0.0 | 0.0 | 0.00 | 0.21 | 0.21 | 88 | 1015.4 |
| 20260506211003 | 52 | 0 | 0.0 | 0.0 | 0.00 | 0.21 | 0.21 | 88 | 1015.5 |
| 20260506210503 | 52 | 0 | 0.0 | 0.0 | 0.00 | 0.21 | 0.21 | 87 | 1015.4 |
| 20260506210003 | 53 | 0 | 0.0 | 0.0 | 0.00 | 0.21 | 0.21 | 87 | 1015.5 |
| 20260506205503 | 53 | 0 | 0.0 | 0.0 | 0.00 | 0.21 | 0.21 | 87 | 1015.3 |
| 20260506205003 | 53 | 0 | 0.0 | 0.0 | 0.00 | 0.21 | 0.21 | 87 | 1015.4 |
| 20260506204503 | 53 | 0 | 0.0 | 0.0 | 0.00 | 0.21 | 0.21 | 87 | 1015.4 |
| 20260506204003 | 53 | 0 | 0.0 | 0.0 | 0.00 | 0.21 | 0.21 | 86 | 1015.4 |
| 20260506203503 | 53 | 0 | 0.0 | 0.0 | 0.00 | 0.21 | 0.21 | 86 | 1015.4 |
| 20260506203003 | 53 | 0 | 0.0 | 0.0 | 0.00 | 0.21 | 0.21 | 86 | 1015.4 |
| 20260506202503 | 53 | 0 | 0.0 | 0.0 | 0.00 | 0.21 | 0.21 | 86 | 1015.4 |
| 20260506202003 | 54 | 0 | 0.0 | 0.0 | 0.00 | 0.21 | 0.21 | 86 | 1015.3 |
| 20260506201503 | 54 | 0 | 0.0 | 0.0 | 0.00 | 0.21 | 0.21 | 85 | 1015.3 |
| 20260506201003 | 54 | 0 | 0.0 | 0.0 | 0.00 | 0.21 | 0.21 | 85 | 1015.2 |
| 20260506200503 | 54 | 0 | 0.0 | 0.0 | 0.00 | 0.21 | 0.21 | 85 | 1015.3 |
| 20260506200003 | 54 | 0 | 0.0 | 0.0 | 0.00 | 0.21 | 0.21 | 85 | 1015.2 |
| 20260506195517 | 54 | 0 | 0.0 | 0.0 | 0.00 | 0.21 | 0.21 | 85 | 1015.2 |
| 20260506195003 | 54 | 335 | 0.0 | 1.0 | 0.00 | 0.21 | 0.21 | 85 | 1015.1 |
| 20260506194503 | 54 | 335 | 0.0 | 1.0 | 0.00 | 0.21 | 0.21 | 84 | 1015.0 |
| 20260506194003 | 54 | 335 | 0.0 | 1.0 | 0.00 | 0.21 | 0.21 | 84 | 1014.9 |
| 20260506193503 | 54 | 335 | 0.0 | 1.0 | 0.00 | 0.21 | 0.21 | 84 | 1014.9 |
| 20260506193003 | 54 | 335 | 0.0 | 2.0 | 0.00 | 0.21 | 0.21 | 84 | 1014.9 |
| 20260506192503 | 54 | 335 | 1.0 | 2.0 | 0.00 | 0.21 | 0.21 | 84 | 1014.9 |
| 20260506192003 | 55 | 335 | 1.0 | 2.0 | 0.00 | 0.21 | 0.21 | 83 | 1014.7 |
| 20260506191503 | 55 | 335 | 1.0 | 2.0 | 0.00 | 0.21 | 0.21 | 83 | 1014.8 |
| 20260506191003 | 55 | 335 | 1.0 | 2.0 | 0.00 | 0.21 | 0.21 | 83 | 1014.8 |
| 20260506190503 | 55 | 335 | 1.0 | 2.0 | 0.00 | 0.21 | 0.21 | 83 | 1014.8 |
| 20260506190003 | 55 | 335 | 1.0 | 2.0 | 0.00 | 0.21 | 0.21 | 83 | 1014.7 |
| 20260506185503 | 55 | 335 | 1.0 | 2.0 | 0.00 | 0.21 | 0.21 | 83 | 1014.7 |
| 20260506185003 | 56 | 335 | 1.0 | 2.0 | 0.00 | 0.21 | 0.21 | 82 | 1014.6 |
| 20260506184503 | 56 | 335 | 1.0 | 2.0 | 0.00 | 0.21 | 0.21 | 82 | 1014.6 |
| 20260506184017 | 56 | 335 | 1.0 | 2.0 | 0.00 | 0.21 | 0.21 | 82 | 1014.7 |
| 20260506183503 | 56 | 335 | 1.0 | 3.0 | 0.00 | 0.22 | 0.21 | 82 | 1014.7 |
| 20260506183017 | 56 | 333 | 1.0 | 3.0 | 0.00 | 0.22 | 0.21 | 81 | 1014.6 |
| 20260506182517 | 56 | 328 | 1.0 | 3.0 | 0.00 | 0.22 | 0.21 | 81 | 1014.6 |
| 20260506182017 | 57 | 324 | 0.0 | 2.0 | 0.00 | 0.22 | 0.21 | 80 | 1014.7 |
| 20260506181503 | 57 | 320 | 0.0 | 3.0 | 0.00 | 0.22 | 0.21 | 80 | 1014.6 |
| 20260506181003 | 58 | 320 | 0.0 | 3.0 | 0.00 | 0.22 | 0.21 | 80 | 1014.6 |
| 20260506180503 | 58 | 315 | 1.0 | 3.0 | 0.00 | 0.22 | 0.21 | 80 | 1014.6 |
| 20260506180003 | 58 | 293 | 1.0 | 4.0 | 0.00 | 0.22 | 0.21 | 79 | 1014.7 |
| 20260506175503 | 58 | 240 | 1.0 | 4.0 | 0.00 | 0.22 | 0.21 | 78 | 1014.7 |
| 20260506175003 | 59 | 188 | 0.0 | 2.0 | 0.00 | 0.22 | 0.21 | 80 | 1014.7 |
| 20260506174503 | 59 | 186 | 0.0 | 1.0 | 0.00 | 0.22 | 0.21 | 80 | 1014.6 |
| 20260506174003 | 59 | 186 | 1.0 | 2.0 | 0.00 | 0.22 | 0.21 | 80 | 1014.6 |
| 20260506173503 | 58 | 186 | 1.0 | 2.0 | 0.00 | 0.22 | 0.21 | 80 | 1014.7 |
| 20260506173003 | 58 | 186 | 1.0 | 3.0 | 0.00 | 0.22 | 0.21 | 79 | 1014.6 |
| 20260506172503 | 58 | 185 | 1.0 | 3.0 | 0.00 | 0.22 | 0.21 | 80 | 1014.7 |
| 20260506172003 | 58 | 184 | 1.0 | 3.0 | 0.00 | 0.22 | 0.21 | 81 | 1014.7 |
| 20260506171503 | 58 | 181 | 1.0 | 2.0 | 0.00 | 0.22 | 0.21 | 81 | 1014.7 |
| 20260506171003 | 58 | 187 | 1.0 | 2.0 | 0.00 | 0.22 | 0.21 | 81 | 1014.6 |
| 20260506170503 | 58 | 251 | 1.0 | 2.0 | 0.00 | 0.22 | 0.21 | 80 | 1014.7 |
| 20260506170003 | 58 | 276 | 1.0 | 2.0 | 0.00 | 0.22 | 0.21 | 80 | 1014.7 |
| 20260506165503 | 58 | 277 | 1.0 | 2.0 | 0.00 | 0.22 | 0.21 | 79 | 1014.7 |
| 20260506165003 | 57 | 250 | 1.0 | 4.0 | 0.00 | 0.22 | 0.21 | 80 | 1014.7 |
| 20260506164503 | 57 | 217 | 2.0 | 5.0 | 0.00 | 0.22 | 0.21 | 79 | 1014.7 |
| 20260506164003 | 57 | 200 | 2.0 | 5.0 | 0.00 | 0.22 | 0.21 | 79 | 1014.6 |
| 20260506163503 | 57 | 192 | 2.0 | 4.0 | 0.00 | 0.22 | 0.21 | 79 | 1014.8 |
| 20260506163003 | 57 | 237 | 1.0 | 4.0 | 0.00 | 0.22 | 0.21 | 79 | 1014.8 |
| 20260506162503 | 57 | 277 | 1.0 | 5.0 | 0.00 | 0.22 | 0.21 | 79 | 1014.9 |
| 20260506162003 | 58 | 261 | 1.0 | 5.0 | 0.00 | 0.22 | 0.21 | 77 | 1014.9 |
| 20260506161517 | 58 | 272 | 2.0 | 8.0 | 0.00 | 0.22 | 0.21 | 77 | 1014.9 |
| 20260506161003 | 58 | 299 | 2.0 | 8.0 | 0.00 | 0.22 | 0.21 | 76 | 1014.8 |
| 20260506160503 | 59 | 294 | 2.0 | 4.0 | 0.00 | 0.22 | 0.21 | 77 | 1014.8 |
| 20260506160003 | 58 | 287 | 2.0 | 6.0 | 0.00 | 0.22 | 0.21 | 78 | 1014.8 |
| 20260506155503 | 58 | 285 | 2.0 | 6.0 | 0.00 | 0.22 | 0.21 | 77 | 1014.9 |
| 20260506155003 | 58 | 287 | 2.0 | 5.0 | 0.00 | 0.22 | 0.21 | 77 | 1015.0 |
| 20260506154503 | 58 | 317 | 2.0 | 6.0 | 0.00 | 0.22 | 0.21 | 76 | 1014.9 |
| 20260506154003 | 59 | 300 | 2.0 | 6.0 | 0.00 | 0.23 | 0.21 | 75 | 1015.1 |
| 20260506153503 | 59 | 299 | 2.0 | 4.0 | 0.00 | 0.24 | 0.21 | 76 | 1015.0 |
| 20260506153003 | 58 | 223 | 2.0 | 6.0 | 0.00 | 0.24 | 0.21 | 79 | 1015.0 |
| 20260506152503 | 58 | 202 | 2.0 | 6.0 | 0.00 | 0.25 | 0.21 | 81 | 1014.9 |
| 20260506152017 | 58 | 216 | 2.0 | 5.0 | 0.00 | 0.25 | 0.21 | 82 | 1014.9 |
| 20260506151503 | 57 | 215 | 2.0 | 6.0 | 0.00 | 0.25 | 0.21 | 81 | 1015.0 |
| 20260506151003 | 57 | 215 | 3.0 | 8.0 | 0.00 | 0.25 | 0.21 | 81 | 1015.0 |
| 20260506150503 | 57 | 216 | 3.0 | 8.0 | 0.00 | 0.25 | 0.21 | 81 | 1015.0 |
| 20260506150003 | 57 | 219 | 2.0 | 5.0 | 0.00 | 0.26 | 0.21 | 82 | 1015.0 |
| 20260506145517 | 57 | 207 | 2.0 | 5.0 | 0.00 | 0.26 | 0.21 | 82 | 1015.0 |
| 20260506145017 | 57 | 223 | 2.0 | 6.0 | 0.00 | 0.27 | 0.21 | 81 | 1015.1 |
| 20260506144503 | 57 | 256 | 2.0 | 6.0 | 0.00 | 0.28 | 0.21 | 81 | 1015.1 |
| 20260506144003 | 57 | 262 | 2.0 | 7.0 | 0.00 | 0.28 | 0.21 | 80 | 1015.1 |
| 20260506143517 | 57 | 258 | 2.0 | 7.0 | 0.00 | 0.28 | 0.21 | 81 | 1015.2 |
| 20260506143003 | 57 | 249 | 2.0 | 7.0 | 0.00 | 0.28 | 0.21 | 80 | 1015.2 |
| 20260506142503 | 57 | 239 | 3.0 | 7.0 | 0.00 | 0.28 | 0.21 | 80 | 1015.1 |
| 20260506142017 | 57 | 216 | 2.0 | 6.0 | 0.00 | 0.28 | 0.21 | 82 | 1015.2 |
| 20260506141503 | 57 | 196 | 1.0 | 6.0 | 0.00 | 0.28 | 0.21 | 82 | 1015.2 |
| 20260506141003 | 57 | 182 | 2.0 | 5.0 | 0.00 | 0.28 | 0.21 | 85 | 1015.2 |
| 20260506140503 | 56 | 203 | 2.0 | 6.0 | 0.01 | 0.29 | 0.21 | 84 | 1015.3 |
| 20260506140003 | 56 | 234 | 2.0 | 6.0 | 0.01 | 0.30 | 0.21 | 85 | 1015.4 |
| 20260506135503 | 56 | 270 | 3.0 | 8.0 | 0.01 | 0.30 | 0.21 | 85 | 1015.4 |
| 20260506135017 | 56 | 288 | 3.0 | 8.0 | 0.01 | 0.31 | 0.21 | 86 | 1015.3 |
| 20260506134503 | 56 | 289 | 3.0 | 9.0 | 0.01 | 0.31 | 0.21 | 86 | 1015.4 |
| 20260506133517 | 56 | 193 | 2.0 | 7.0 | 0.01 | 0.33 | 0.21 | 87 | 1015.4 |
| 20260506133003 | 56 | 205 | 2.0 | 6.0 | 0.01 | 0.34 | 0.21 | 87 | 1015.2 |
| 20260506132503 | 55 | 193 | 2.0 | 8.0 | 0.01 | 0.35 | 0.21 | 87 | 1015.2 |
| 20260506132003 | 55 | 172 | 4.0 | 9.0 | 0.02 | 0.35 | 0.21 | 87 | 1015.2 |
| 20260506131503 | 55 | 169 | 2.0 | 9.0 | 0.02 | 0.35 | 0.21 | 88 | 1015.2 |
| 20260506131003 | 55 | 173 | 2.0 | 10.0 | 0.02 | 0.35 | 0.21 | 89 | 1015.2 |
| 20260506130503 | 55 | 170 | 3.0 | 10.0 | 0.02 | 0.35 | 0.20 | 89 | 1015.1 |
| 20260506130003 | 55 | 164 | 3.0 | 8.0 | 0.02 | 0.36 | 0.20 | 89 | 1015.1 |
| 20260506125503 | 55 | 160 | 2.0 | 8.0 | 0.02 | 0.37 | 0.20 | 89 | 1015.1 |
| 20260506125003 | 55 | 159 | 2.0 | 9.0 | 0.02 | 0.37 | 0.20 | 89 | 1015.0 |
| 20260506124503 | 55 | 151 | 2.0 | 9.0 | 0.02 | 0.38 | 0.20 | 89 | 1015.0 |
| 20260506124017 | 55 | 171 | 2.0 | 5.0 | 0.02 | 0.38 | 0.20 | 89 | 1015.0 |
| 20260506123503 | 55 | 191 | 3.0 | 6.0 | 0.02 | 0.39 | 0.20 | 89 | 1015.0 |
| 20260506123003 | 55 | 184 | 3.0 | 6.0 | 0.02 | 0.39 | 0.20 | 88 | 1015.0 |
| 20260506122517 | 55 | 161 | 3.0 | 8.0 | 0.02 | 0.39 | 0.20 | 88 | 1015.0 |
| 20260506122003 | 55 | 177 | 3.0 | 8.0 | 0.01 | 0.41 | 0.20 | 87 | 1015.0 |
| 20260506121503 | 55 | 226 | 3.0 | 8.0 | 0.01 | 0.44 | 0.20 | 85 | 1015.0 |
| 20260506121003 | 55 | 230 | 4.0 | 8.0 | 0.00 | 0.43 | 0.19 | 85 | 1015.0 |
| 20260506120503 | 56 | 219 | 4.0 | 10.0 | 0.00 | 0.43 | 0.19 | 84 | 1015.0 |
| 20260506120003 | 56 | 190 | 4.0 | 10.0 | 0.00 | 0.43 | 0.19 | 84 | 1014.9 |
| 20260506115517 | 56 | 164 | 2.0 | 8.0 | 0.00 | 0.43 | 0.19 | 83 | 1014.9 |
| 20260506115003 | 57 | 163 | 1.0 | 7.0 | 0.00 | 0.43 | 0.19 | 83 | 1014.8 |
| 20260506114503 | 57 | 159 | 1.0 | 5.0 | 0.00 | 0.43 | 0.19 | 83 | 1014.8 |
| 20260506114003 | 57 | 157 | 2.0 | 6.0 | 0.00 | 0.43 | 0.19 | 84 | 1014.9 |
| 20260506113503 | 56 | 157 | 2.0 | 6.0 | 0.00 | 0.43 | 0.19 | 83 | 1014.9 |
| 20260506113003 | 56 | 155 | 2.0 | 6.0 | 0.00 | 0.43 | 0.19 | 82 | 1014.9 |
| 20260506112503 | 57 | 162 | 2.0 | 6.0 | 0.00 | 0.43 | 0.19 | 82 | 1015.0 |
| 20260506112003 | 57 | 176 | 2.0 | 6.0 | 0.00 | 0.43 | 0.19 | 81 | 1014.9 |
| 20260506111517 | 57 | 170 | 2.0 | 6.0 | 0.00 | 0.43 | 0.19 | 81 | 1014.8 |
| 20260506111003 | 57 | 161 | 3.0 | 7.0 | 0.00 | 0.43 | 0.19 | 80 | 1014.7 |
| 20260506110503 | 58 | 156 | 4.0 | 8.0 | 0.00 | 0.43 | 0.19 | 81 | 1014.6 |
| 20260506110003 | 57 | 156 | 4.0 | 8.0 | 0.00 | 0.43 | 0.19 | 79 | 1014.6 |
| 20260506105503 | 57 | 167 | 3.0 | 7.0 | 0.00 | 0.43 | 0.19 | 79 | 1014.5 |
| 20260506105017 | 57 | 185 | 3.0 | 11.0 | 0.00 | 0.43 | 0.19 | 79 | 1014.6 |
| 20260506104503 | 57 | 180 | 4.0 | 11.0 | 0.00 | 0.43 | 0.19 | 79 | 1014.6 |
| 20260506104003 | 57 | 164 | 3.0 | 7.0 | 0.00 | 0.43 | 0.19 | 80 | 1014.5 |
| 20260506103503 | 57 | 161 | 2.0 | 7.0 | 0.00 | 0.43 | 0.19 | 80 | 1014.5 |
| 20260506103003 | 57 | 188 | 2.0 | 7.0 | 0.00 | 0.43 | 0.19 | 80 | 1014.5 |
| 20260506102503 | 57 | 204 | 2.0 | 8.0 | 0.00 | 0.43 | 0.19 | 81 | 1014.6 |
| 20260506102017 | 57 | 219 | 3.0 | 8.0 | 0.00 | 0.43 | 0.19 | 81 | 1014.6 |
| 20260506101503 | 57 | 190 | 3.0 | 11.0 | 0.00 | 0.43 | 0.19 | 83 | 1014.5 |
| 20260506101003 | 56 | 186 | 3.0 | 11.0 | 0.00 | 0.43 | 0.19 | 83 | 1014.5 |
| 20260506100503 | 56 | 197 | 2.0 | 7.0 | 0.01 | 0.43 | 0.19 | 85 | 1014.6 |
| 20260506100017 | 55 | 173 | 3.0 | 9.0 | 0.02 | 0.43 | 0.19 | 85 | 1014.6 |
| 20260506095503 | 55 | 169 | 3.0 | 9.0 | 0.02 | 0.43 | 0.19 | 86 | 1014.5 |
| 20260506095003 | 55 | 166 | 4.0 | 8.0 | 0.02 | 0.43 | 0.19 | 86 | 1014.6 |
| 20260506094503 | 55 | 161 | 5.0 | 12.0 | 0.02 | 0.43 | 0.19 | 86 | 1014.6 |
| 20260506094003 | 55 | 160 | 3.0 | 12.0 | 0.02 | 0.43 | 0.19 | 87 | 1014.5 |
| 20260506093503 | 55 | 158 | 1.0 | 6.0 | 0.02 | 0.43 | 0.19 | 88 | 1014.5 |
| 20260506093017 | 54 | 153 | 2.0 | 6.0 | 0.02 | 0.43 | 0.19 | 87 | 1014.5 |
| 20260506092503 | 54 | 151 | 3.0 | 7.0 | 0.02 | 0.43 | 0.19 | 87 | 1014.6 |
| 20260506092003 | 54 | 163 | 2.0 | 7.0 | 0.02 | 0.43 | 0.19 | 87 | 1014.6 |
| 20260506091517 | 54 | 177 | 2.0 | 5.0 | 0.02 | 0.43 | 0.19 | 87 | 1014.6 |
| 20260506091003 | 54 | 173 | 2.0 | 6.0 | 0.02 | 0.43 | 0.19 | 87 | 1014.5 |
| 20260506090503 | 54 | 219 | 2.0 | 7.0 | 0.02 | 0.43 | 0.18 | 87 | 1014.5 |
| 20260506090003 | 54 | 290 | 1.0 | 7.0 | 0.02 | 0.42 | 0.17 | 87 | 1014.5 |
| 20260506085503 | 54 | 307 | 1.0 | 3.0 | 0.03 | 0.42 | 0.17 | 88 | 1014.3 |
| 20260506085003 | 54 | 293 | 1.0 | 5.0 | 0.04 | 0.42 | 0.17 | 88 | 1014.4 |
| 20260506084503 | 54 | 195 | 1.0 | 5.0 | 0.04 | 0.42 | 0.17 | 88 | 1014.3 |
| 20260506084003 | 54 | 192 | 1.0 | 4.0 | 0.04 | 0.42 | 0.17 | 88 | 1014.2 |
| 20260506083503 | 54 | 235 | 1.0 | 4.0 | 0.03 | 0.41 | 0.17 | 88 | 1014.3 |
| 20260506083017 | 53 | 202 | 1.0 | 5.0 | 0.03 | 0.41 | 0.17 | 89 | 1014.3 |
| 20260506082503 | 53 | 181 | 1.0 | 5.0 | 0.03 | 0.41 | 0.17 | 88 | 1014.2 |
| 20260506082003 | 53 | 245 | 1.0 | 5.0 | 0.03 | 0.41 | 0.17 | 89 | 1014.2 |
| 20260506081503 | 53 | 322 | 1.0 | 4.0 | 0.03 | 0.41 | 0.17 | 90 | 1014.3 |
| 20260506081017 | 53 | 241 | 1.0 | 4.0 | 0.03 | 0.41 | 0.17 | 90 | 1014.2 |
| 20260506080503 | 53 | 176 | 1.0 | 4.0 | 0.02 | 0.40 | 0.17 | 90 | 1014.2 |
| 20260506073503 | 53 | 111 | 0.0 | 2.0 | 0.00 | 0.40 | 0.13 | 92 | 1014.1 |
| 20260506073017 | 53 | 111 | 0.0 | 1.0 | 0.00 | 0.41 | 0.13 | 92 | 1013.9 |
| 20260506072503 | 53 | 111 | 0.0 | 2.0 | 0.00 | 0.41 | 0.13 | 92 | 1013.8 |
| 20260506072003 | 53 | 111 | 0.0 | 2.0 | 0.00 | 0.42 | 0.13 | 92 | 1013.9 |
| 20260506071503 | 52 | 111 | 0.0 | 1.0 | 0.00 | 0.42 | 0.13 | 92 | 1013.9 |
| 20260506071003 | 52 | 111 | 0.0 | 2.0 | 0.01 | 0.43 | 0.13 | 92 | 1013.9 |
| 20260506070503 | 52 | 111 | 0.0 | 2.0 | 0.01 | 0.45 | 0.13 | 92 | 1013.8 |
| 20260506062503 | 51 | 80 | 0.0 | 2.0 | 0.01 | 0.52 | 0.13 | 92 | 1013.6 |
| 20260506062017 | 51 | 80 | 0.0 | 2.0 | 0.01 | 0.54 | 0.13 | 92 | 1013.6 |
| 20260506061517 | 51 | 80 | 0.0 | 1.0 | 0.02 | 0.56 | 0.13 | 92 | 1013.5 |
| 20260506061003 | 51 | 80 | 0.0 | 2.0 | 0.02 | 0.57 | 0.13 | 91 | 1013.5 |
| 20260506060503 | 51 | 80 | 0.0 | 2.0 | 0.02 | 0.57 | 0.13 | 91 | 1013.5 |
| 20260506051003 | 51 | 127 | 0.0 | 2.0 | 0.11 | 0.55 | 0.11 | 90 | 1013.3 |
| 20260506050503 | 51 | 157 | 1.0 | 3.0 | 0.11 | 0.55 | 0.11 | 90 | 1013.3 |
| 20260506045003 | 51 | 198 | 1.0 | 2.0 | 0.07 | 0.51 | 0.07 | 89 | 1013.2 |
| 20260506044517 | 51 | 214 | 1.0 | 2.0 | 0.06 | 0.50 | 0.06 | 89 | 1013.3 |